Location: ????????
(55.0097°N, 38.5678°E)
Time: 00:50:06
(UTC+00:00)

NOSS 3-1 (C) - Pass Details

Date: 16 December 2025
Orbit: 618 x 1583 km, 63.4° (Epoch: 10 January)

Event Time Altitude Azimuth Distance (km) Brightness Sun altitude
Exits shadow 01:14:43 20° 168° (SSE) 2,763 5.8 -36.9°
Drops below altitude 10° 01:17:06 10° 162° (SSE) 3,520 6.4 -36.6°
Sets 01:20:23 0° 158° (SSE) 4,597 7.1 -36.1°
